Location: Carrascal
(41.0953°N, 3.9873°W)
Time: 00:32:57
(UTC+00:00)

Daily predictions for brighter satellites

Satellite Brightness Start Highest point End
(mag) Time Altitude Azimuth Time Altitude Azimuth Time Altitude Azimuth
ATLAS CENTAUR R/B 4.4 02:34:10 39° N 02:34:10 39° N 02:42:29 10° NE
ATLAS 2AS CENTAUR R/B 4.0 03:09:31 29° NNW 03:09:31 29° NNW 03:14:34 10° NNE
ATLAS 3B R/B 4.5 03:14:59 22° SSE 03:14:59 22° SSE 03:17:16 10° SSE
CZ-2C R/B 3.9 03:15:43 10° NNE 03:19:53 49° NNE 03:19:53 49° NNE
Cosmos 1867 4.0 03:33:23 60° NE 03:33:28 60° NE 03:38:50 10° SE
GP-B 4.3 03:38:17 40° E 03:38:30 40° E 03:42:38 10° NNE
Sich 1 4.3 03:36:06 10° N 03:40:10 39° ENE 03:41:10 34° ESE
Meteor 1-10 Rocket 4.4 03:44:44 53° SSE 03:45:50 67° E 03:51:20 10° NNE
BlueWalker 3 3.7 03:48:24 30° E 03:48:24 30° E 03:50:38 10° ESE
NOSS 3-1 (A) 4.0 03:43:24 22° NW 03:48:54 75° WSW 03:57:56 10° SSE
ADEOS II 4.3 03:46:49 10° NNW 03:47:29 13° NNW 03:47:29 13° NNW
IRS-1D 3.6 03:49:22 10° N 03:54:06 68° NNW 03:54:06 68° NNW
USA 281 4.1 03:48:59 10° N 03:54:08 33° NW 03:54:08 33° NW
Envisat 3.0 03:51:48 10° NNE 03:56:53 75° ESE 03:57:47 59° SSE
Cosmos 2297 Rocket 3.0 03:55:04 23° SSE 03:58:15 47° ESE 04:03:38 10° NE
Cosmos 1125 Rocket 4.2 04:06:13 39° NNW 04:06:13 39° NNW 04:10:06 10° N
Lacrosse 5 rocket 3.5 04:06:40 16° N 04:06:40 16° N 04:08:14 10° NNE
Cosmos 1536 3.5 04:04:20 10° N 04:07:16 47° NNE 04:07:16 47° NNE
Cosmos 2237 Rocket 3.3 04:05:22 10° NNW 04:10:47 43° ENE 04:16:09 10° SE
Nadezhda 2 Rocket 4.4 04:08:39 36° SSW 04:11:26 73° W 04:17:53 10° N
METEOR-M 4.1 04:08:19 10° N 04:13:34 59° WNW 04:13:58 57° W
Okean 1 3.7 04:16:06 35° SSE 04:17:26 58° E 04:21:14 10° NNE
YAOGAN 11 4.0 04:15:01 10° S 04:19:30 75° WSW 04:23:58 10° NNW
Cosmos 2322 4.0 04:25:42 42° SW 04:25:42 42° SW 04:30:24 10° S
H-2A R/B 4.3 04:22:12 10° NNE 04:25:22 32° E 04:28:31 10° SSE
Cosmos 2344 4.2 04:20:07 10° S 04:27:42 51° ESE 04:34:42 10° NE
COBE Rocket 3.8 04:24:28 10° N 04:29:19 73° WNW 04:32:18 24° SSW
SL-08 R/B 4.4 04:25:53 20° SSW 04:30:10 65° W 04:36:15 10° N
PAYLOAD A 4.2 04:26:44 10° N 04:31:27 46° WNW 04:32:20 42° W
Cosmos 1151 Rocket 2.9 04:31:38 38° SSW 04:33:12 69° W 04:37:34 10° N
Nadezhda 1 Rocket 4.0 04:27:11 10° N 04:33:30 82° E 04:39:40 10° S
COSMOS 2428 2.9 04:28:20 10° NW 04:33:47 47° WSW 04:39:12 10° S
NOSS 0 Rocket 3.8 04:28:25 10° NNW 04:34:41 77° WSW 04:40:54 10° SSE
CBERS-1 3.9 04:30:01 10° N 04:35:06 70° WNW 04:38:47 19° SSW
CZ-2C R/B 2.9 04:32:01 10° N 04:36:09 34° WNW 04:36:09 34° WNW
ALOS 4.4 04:33:54 10° NNW 04:34:42 13° NW 04:34:42 13° NW
USA 215 3.2 04:36:40 10° SE 04:43:15 88° SW 04:49:50 10° NW
BREEZE-M DEB (TANK) 3.5 04:42:21 32° WNW 04:44:06 55° N 04:57:05 10° ENE
Cosmos 1328 Rocket 3.8 04:39:58 10° S 04:44:22 73° E 04:48:45 10° NNE
Cosmos 2227 Rocket 2.6 04:39:23 10° S 04:44:59 65° ESE 04:50:37 10° NNE
Cosmos 44 Rocket 3.5 04:43:55 32° WSW 04:46:04 57° NW 04:51:10 10° NNE
Cosmos 1666 Rocket 3.5 04:42:20 10° N 04:46:44 83° E 04:51:03 10° S
ARIANE 5 R/B 2.9 04:43:21 10° NNE 04:48:21 63° ESE 04:53:16 10° S
Cosmos 1386 Rocket 4.4 04:42:46 10° SSW 04:49:02 65° W 04:55:13 10° N
Meteor 1-27 Rocket 3.8 04:47:05 11° SSW 04:52:21 53° WNW 04:57:57 10° N
DMSP B5D2-2 4.0 04:48:33 10° S 04:53:47 72° WSW 04:59:04 10° NNW
Meteor 2-20 4.4 04:50:01 10° NNW 04:56:05 63° W 05:02:07 10° S
Helios 1A 2.8 04:54:17 10° SSE 04:58:22 83° WSW 05:02:28 10° NNW
CZ-2D R/B 4.4 04:54:22 10° NNE 04:58:38 53° E 05:02:53 10° S
Meteor 1-19 Rocket 4.2 04:56:26 10° SSW 05:01:54 56° WNW 05:07:17 10° N
Cosmos 1709 Rocket 4.0 04:58:41 10° S 05:05:04 84° W 05:11:28 10° N
Cosmos 1269 Rocket 3.9 05:00:39 10° NNW 05:05:57 79° WSW 05:11:12 10° SSE
IRS-P3 4.2 05:01:48 10° NNE 05:07:11 85° ESE 05:12:30 10° SSW
Cosmos 1805 4.3 05:07:04 10° N 05:10:44 46° E 05:14:23 10° SSE
Cosmos 614 Rocket 4.0 05:06:12 10° NNW 05:11:14 58° WSW 05:16:18 10° S
Meteor 2-4 Rocket 3.9 05:06:11 10° S 05:12:06 84° E 05:17:58 10° N
Cosmos 1633 Rocket 3.1 05:10:59 10° NNW 05:15:18 58° W 05:19:37 10° S
Cosmos 1980 3.8 05:11:16 10° NNW 05:16:45 52° WSW 05:22:12 10° S
ATLAS CENTAUR R/B 3.2 05:13:57 10° N 05:17:00 25° NE 05:20:02 10° ESE
Cosmos 1484 Rocket 3.6 05:14:00 10° NNW 05:17:06 27° WNW 05:19:36 13° WSW
Sich 1 4.5 05:14:33 10° NW 05:17:21 17° W 05:17:37 17° W
Cosmos 1745 Rocket 4.4 05:13:20 10° SSW 05:19:17 43° WNW 05:25:20 10° N
Meteor 1-18 Rocket 4.3 05:17:27 10° S 05:23:20 84° W 05:29:09 10° N
USA 229 DEB 4.4 05:16:22 10° NW 05:23:22 41° WSW 05:30:46 10° S
USA 229 4.4 05:16:27 10° NW 05:23:27 41° WSW 05:30:50 10° S
H-2A R/B 2.2 05:19:01 10° NNE 05:24:29 90° WNW 05:29:51 10° SSW
BlueWalker 3 3.2 05:23:04 15° W 05:25:07 23° SW 05:28:14 10° S
PSLV R/B 4.3 05:28:12 10° NNE 05:32:16 54° E 05:36:19 10° S
SKYMED 2 3.6 05:30:23 10° SSE 05:34:43 89° W 05:39:05 10° NNW
Cosmos 1939 Rocket 3.0 05:36:58 10° N 05:40:43 48° WNW 05:44:30 10° SSW
Cosmos 2297 Rocket 3.2 05:37:48 10° WSW 05:42:29 26° NW 05:47:12 10° N
Cosmos 2074 Rocket 4.4 05:39:34 10° S 05:45:43 72° E 05:51:54 10° NNE
USA 81 4.5 05:43:49 10° N 05:49:06 70° E 05:54:22 10° SSE
Cosmos 2219 3.3 05:47:00 10° SW 05:52:34 56° WNW 05:58:07 10° NNE
